COSMOS 890

导读

COSMOS 890是独联体(CIS)继承自苏联航天项目的卫星,于1977年1月20日发射升空,属于苏联著名的“宇宙”(COSMOS)系列卫星。该系列卫星多承担军事侦察、空间技术试验等任务,是冷战时期苏联太空战略的重要组成部分,为苏联获取战略情报、验证航天技术发挥了关键作用,这颗卫星也成为那段太空竞赛历史的典型见证。

Basic Information
目录编号:
9737
目录名称:
COSMOS 890
国际标识:
1977-004A
轨道中心:
EARTH
卫星名称:
COSMOS 890
卫星全名:
--
卫星状态:
在轨 (已飞行18133 天)
发射日期:
1977-01-20 UTC
国别 :
俄罗斯(独联体) (CIS)
星等 :
--
This satellite is enrolled in the Space Conjunction Data Service (SCDS) and the current flight risk assessment level is: No High Risk
Orbit Information
数据来源 国际轨道数据 AOE轨道数据
星历时间 2026-09-13T08:06:07+0800
6小时前
查看轨道信息
2026-09-11T23:00:00+0800
1天前
查看轨道信息
半长轴 7370.781km 7370.781km
偏心率 0.0027012 0.0025145
轨道倾角 82.956° 82.950°
近地点辐角 44.122° 48.973°
升交点赤经 100.487° 101.509°
平近点角 119.490° 146.438°
近地点 972.734km 974.11km
远地点 1012.554km 1011.178km
周期 104.961分钟 104.961分钟
每日圈数 13.719319 13.71932
Detailed Information
使用方式:
暂无
2D Orbit Map
3D Orbit Map
Orbit Altitude Analysis Chart
Orbit Inclination Analysis Chart
Orbit Comprehensive Analysis Chart
View Comprehensive Chart
Conjunction Data List
Event ID Objects TCA Miss Dist (km) Collision Risk Probability Collision Risk Index (CRI) Action
CDM_260912-164600-973701-277529
2026-09-12T
16:46:48+0000
1.678 km
极远距离
3.90873E-6 低风险 0.47
CDM_260914-221200-973703-001323
2026-09-14T
22:12:06+0000
1.960 km
极远距离
2.985786E-6 低风险 0.45
CDM_260915-194200-973701-638721
2026-09-15T
19:42:14+0000
2.386 km
极远距离
1.85605E-6 低风险 0.4
Miss Distance Evolution Trend with All Objects
Collision Probability Evolution Trend with All Objects